OYYOR EKOD-EKEB

Flight info

Callsign OYYOR
Flight time 0h 39m
Altitude 4000
Route VP012 DCT 553008N0094518E 553345N0094243E DCT VP021 DCT VP014
Aircraft C172/L-SFG/C

Departure

Time 2026-05-09 13:00
Airport Odense Hans Christian Andersen Airport (EKOD)

Arrival

Time 2026-05-09 13:39
Airport Esbjerg Airport (EKEB)
Time Latitude Longitude Altitude Speed Heading
2026-05-09 12:47 55.47277 10.32636 57 ft 0 kts 177°
2026-05-09 12:57 55.47271 10.32644 57 ft 3 kts 134°
2026-05-09 12:57 55.47280 10.32704 57 ft 8 kts 45°
2026-05-09 12:57 55.47323 10.32796 57 ft 11 kts 19°
2026-05-09 12:57 55.47391 10.32712 57 ft 10 kts 313°
2026-05-09 12:58 55.47416 10.32667 57 ft 0 kts 315°
2026-05-09 12:58 55.47419 10.32661 57 ft 2 kts 320°
2026-05-09 12:58 55.47448 10.32610 57 ft 9 kts 315°
2026-05-09 12:59 55.47502 10.32597 57 ft 8 kts 52°
2026-05-09 12:59 55.47539 10.32701 57 ft 15 kts 57°
2026-05-09 12:59 55.47678 10.33122 56 ft 58 kts 59°
2026-05-09 12:59 55.47901 10.33753 192 ft 58 kts 51°
2026-05-09 13:00 55.48169 10.34298 319 ft 59 kts 53°
2026-05-09 13:00 55.48431 10.34856 451 ft 60 kts 49°
2026-05-09 13:00 55.48697 10.35411 593 ft 57 kts 45°
2026-05-09 13:00 55.49008 10.35938 684 ft 64 kts 43°
2026-05-09 13:01 55.49333 10.36503 803 ft 67 kts 47°
2026-05-09 13:01 55.49601 10.37207 920 ft 70 kts 59°
2026-05-09 13:01 55.49857 10.37945 1062 ft 71 kts 56°
2026-05-09 13:01 55.50142 10.38652 1227 ft 68 kts 55°
2026-05-09 13:02 55.50110 10.39350 1359 ft 70 kts 135°
2026-05-09 13:02 55.49585 10.39296 1433 ft 87 kts 197°
2026-05-09 13:02 55.49109 10.38753 1614 ft 83 kts 203°
2026-05-09 13:02 55.48633 10.38227 1759 ft 80 kts 198°
2026-05-09 13:03 55.48171 10.37584 1852 ft 89 kts 229°
2026-05-09 13:03 55.47885 10.36542 1906 ft 97 kts 239°
2026-05-09 13:03 55.47599 10.35444 1959 ft 101 kts 242°
2026-05-09 13:03 55.47396 10.34317 2121 ft 93 kts 240°
2026-05-09 13:04 55.47155 10.33127 2028 ft 110 kts 245°
2026-05-09 13:04 55.46901 10.31821 2007 ft 112 kts 245°
2026-05-09 13:04 55.46647 10.30517 2003 ft 112 kts 245°
2026-05-09 13:04 55.46383 10.29236 2003 ft 110 kts 240°
2026-05-09 13:05 55.46073 10.28010 2002 ft 111 kts 240°
2026-05-09 13:05 55.45752 10.26772 2003 ft 110 kts 236°
2026-05-09 13:05 55.45388 10.25584 2003 ft 110 kts 235°
2026-05-09 13:05 55.45015 10.24397 2018 ft 113 kts 235°
2026-05-09 13:06 55.44633 10.23201 2120 ft 112 kts 235°
2026-05-09 13:06 55.44255 10.22005 2251 ft 110 kts 235°
2026-05-09 13:06 55.43887 10.20832 2376 ft 109 kts 234°
2026-05-09 13:06 55.43519 10.19657 2501 ft 108 kts 234°
2026-05-09 13:07 55.43167 10.18512 2626 ft 107 kts 235°
2026-05-09 13:07 55.42812 10.17347 2751 ft 107 kts 235°
2026-05-09 13:07 55.42460 10.16187 2873 ft 107 kts 235°
2026-05-09 13:07 55.42218 10.14936 2987 ft 109 kts 254°
2026-05-09 13:08 55.42104 10.13626 3106 ft 109 kts 256°
2026-05-09 13:08 55.42043 10.12285 3233 ft 110 kts 264°
2026-05-09 13:08 55.42076 10.10931 3350 ft 111 kts 273°
2026-05-09 13:08 55.42188 10.09603 3477 ft 110 kts 274°
2026-05-09 13:09 55.42308 10.08278 3602 ft 110 kts 275°
2026-05-09 13:09 55.42430 10.06954 3727 ft 109 kts 274°
2026-05-09 13:09 55.42553 10.05638 3856 ft 109 kts 275°
2026-05-09 13:09 55.42673 10.04326 3976 ft 108 kts 274°
2026-05-09 13:10 55.42824 10.03023 4103 ft 108 kts 281°
2026-05-09 13:10 55.43025 10.01759 4224 ft 108 kts 284°
2026-05-09 13:10 55.43328 10.00544 4346 ft 109 kts 292°
2026-05-09 13:10 55.43650 9.99345 4473 ft 108 kts 292°
2026-05-09 13:11 55.43995 9.98058 4465 ft 120 kts 293°
2026-05-09 13:11 55.44357 9.96705 4456 ft 125 kts 293°
2026-05-09 13:11 55.44780 9.95337 4463 ft 127 kts 298°
2026-05-09 13:11 55.45225 9.93976 4455 ft 129 kts 298°
2026-05-09 13:12 55.45672 9.92622 4454 ft 129 kts 298°
2026-05-09 13:12 55.46125 9.91255 4453 ft 129 kts 298°
2026-05-09 13:12 55.46584 9.89877 4453 ft 129 kts 298°
2026-05-09 13:12 55.47042 9.88515 4450 ft 129 kts 298°
2026-05-09 13:13 55.47496 9.87173 4461 ft 128 kts 299°
2026-05-09 13:13 55.47953 9.85818 4458 ft 129 kts 299°
2026-05-09 13:13 55.48414 9.84445 4457 ft 130 kts 299°
2026-05-09 13:13 55.48872 9.83075 4454 ft 130 kts 299°
2026-05-09 13:14 55.49329 9.81705 4457 ft 130 kts 299°
2026-05-09 13:14 55.49785 9.80330 4460 ft 130 kts 299°
2026-05-09 13:16 55.53582 9.71654 4460 ft 129 kts 320°
2026-05-09 13:16 55.54281 9.70632 4459 ft 129 kts 320°
2026-05-09 13:16 55.54977 9.69620 4454 ft 129 kts 320°
2026-05-09 13:16 55.55666 9.68616 4456 ft 129 kts 321°
2026-05-09 13:17 55.56249 9.67435 4458 ft 128 kts 303°
2026-05-09 13:17 55.56739 9.66117 4457 ft 129 kts 302°
2026-05-09 13:17 55.57227 9.64786 4450 ft 128 kts 302°
2026-05-09 13:17 55.57708 9.63470 4458 ft 127 kts 301°
2026-05-09 13:18 55.58184 9.62127 4462 ft 128 kts 301°
2026-05-09 13:18 55.58653 9.60800 4458 ft 129 kts 301°
2026-05-09 13:18 55.59131 9.59452 4455 ft 129 kts 301°
2026-05-09 13:18 55.59607 9.58112 4451 ft 128 kts 300°
2026-05-09 13:19 55.59987 9.56700 4453 ft 127 kts 289°
2026-05-09 13:19 55.60300 9.55217 4449 ft 127 kts 288°
2026-05-09 13:19 55.60605 9.53746 4448 ft 127 kts 288°
2026-05-09 13:19 55.60907 9.52276 4447 ft 127 kts 288°
2026-05-09 13:20 55.61209 9.50813 4448 ft 127 kts 288°
2026-05-09 13:20 55.61511 9.49348 4445 ft 127 kts 288°
2026-05-09 13:20 55.61803 9.47867 4448 ft 127 kts 283°
2026-05-09 13:20 55.62015 9.46356 4445 ft 126 kts 281°
2026-05-09 13:21 55.62190 9.44844 4455 ft 126 kts 274°
2026-05-09 13:21 55.62274 9.43292 4449 ft 126 kts 272°
2026-05-09 13:21 55.62353 9.41742 4448 ft 126 kts 272°
2026-05-09 13:21 55.62424 9.40203 4452 ft 125 kts 268°
2026-05-09 13:22 55.62414 9.38663 4453 ft 125 kts 265°
2026-05-09 13:22 55.62396 9.37137 4455 ft 125 kts 265°
2026-05-09 13:22 55.62375 9.35574 4451 ft 125 kts 265°
2026-05-09 13:23 55.62045 9.29499 4453 ft 124 kts 257°
2026-05-09 13:23 55.61908 9.27985 4445 ft 124 kts 257°
2026-05-09 13:24 55.61775 9.26490 4451 ft 124 kts 257°
2026-05-09 13:24 55.61642 9.24985 4453 ft 124 kts 257°
2026-05-09 13:24 55.61510 9.23485 4453 ft 124 kts 257°
2026-05-09 13:24 55.61239 9.22062 4455 ft 121 kts 241°
2026-05-09 13:25 55.60884 9.20708 4454 ft 121 kts 240°
2026-05-09 13:25 55.60473 9.19431 4455 ft 120 kts 232°
2026-05-09 13:25 55.59560 9.16959 4454 ft 120 kts 232°
2026-05-09 13:26 55.59096 9.15707 4453 ft 120 kts 232°
2026-05-09 13:26 55.58641 9.14483 4452 ft 120 kts 231°
2026-05-09 13:26 55.58099 9.13357 4453 ft 120 kts 223°
2026-05-09 13:26 55.57531 9.12280 4453 ft 120 kts 222°
2026-05-09 13:27 55.56955 9.11204 4448 ft 121 kts 222°
2026-05-09 13:27 55.56382 9.10128 4451 ft 121 kts 222°
2026-05-09 13:27 55.55810 9.09049 4451 ft 121 kts 222°
2026-05-09 13:27 55.55233 9.07956 4446 ft 120 kts 222°
2026-05-09 13:28 55.54670 9.06882 4445 ft 120 kts 222°
2026-05-09 13:28 55.54103 9.05809 4444 ft 119 kts 220°
2026-05-09 13:28 55.53500 9.04821 4449 ft 118 kts 217°
2026-05-09 13:28 55.52882 9.03836 4447 ft 119 kts 217°
2026-05-09 13:29 55.52269 9.02860 4445 ft 119 kts 217°
2026-05-09 13:29 55.51651 9.01877 4368 ft 124 kts 216°
2026-05-09 13:29 55.50974 9.00892 4243 ft 129 kts 215°
2026-05-09 13:29 55.50244 8.99955 4122 ft 129 kts 202°
2026-05-09 13:30 55.49427 8.99253 4005 ft 130 kts 202°
2026-05-09 13:30 55.48612 8.98557 3879 ft 131 kts 202°
2026-05-09 13:30 55.47797 8.97843 3748 ft 132 kts 207°
2026-05-09 13:30 55.47129 8.96704 3613 ft 135 kts 227°
2026-05-09 13:31 55.46761 8.95158 3479 ft 138 kts 252°
2026-05-09 13:31 55.46575 8.93491 3353 ft 140 kts 264°
2026-05-09 13:31 55.46535 8.91768 3228 ft 140 kts 266°
2026-05-09 13:31 55.46574 8.90066 3100 ft 140 kts 274°
2026-05-09 13:32 55.46676 8.88362 2979 ft 140 kts 274°
2026-05-09 13:32 55.46886 8.85096 2983 ft 130 kts 274°
2026-05-09 13:32 55.46992 8.83528 2979 ft 129 kts 274°
2026-05-09 13:33 55.47123 8.81968 2977 ft 128 kts 279°
2026-05-09 13:33 55.47300 8.80432 2984 ft 128 kts 279°
2026-05-09 13:33 55.47544 8.78932 2964 ft 130 kts 290°
2026-05-09 13:33 55.47884 8.77395 2833 ft 137 kts 291°
2026-05-09 13:34 55.48239 8.75810 2706 ft 140 kts 290°
2026-05-09 13:34 55.48597 8.74218 2587 ft 141 kts 291°
2026-05-09 13:34 55.48960 8.72602 2455 ft 141 kts 291°
2026-05-09 13:34 55.49315 8.71007 2337 ft 141 kts 291°
2026-05-09 13:35 55.49680 8.69390 2210 ft 141 kts 291°
2026-05-09 13:35 55.50046 8.67780 2083 ft 141 kts 291°
2026-05-09 13:35 55.50410 8.66172 1956 ft 141 kts 291°
2026-05-09 13:35 55.50595 8.64480 1830 ft 140 kts 273°
2026-05-09 13:36 55.50631 8.62769 1705 ft 140 kts 269°
2026-05-09 13:36 55.50644 8.61031 1581 ft 140 kts 270°
2026-05-09 13:36 55.50656 8.59316 1455 ft 140 kts 270°
2026-05-09 13:36 55.50668 8.57626 1350 ft 132 kts 271°
2026-05-09 13:37 55.50695 8.56091 1214 ft 119 kts 270°
2026-05-09 13:37 55.50744 8.54669 1077 ft 108 kts 272°
2026-05-09 13:37 55.50796 8.53396 879 ft 103 kts 275°
2026-05-09 13:37 55.50835 8.52172 769 ft 94 kts 275°
2026-05-09 13:38 55.50974 8.51080 728 ft 89 kts 300°
2026-05-09 13:38 55.51438 8.50704 838 ft 70 kts
2026-05-09 13:38 55.51867 8.50994 813 ft 73 kts 29°
2026-05-09 13:38 55.52164 8.51636 721 ft 74 kts 66°
2026-05-09 13:39 55.52296 8.52593 408 ft 84 kts 82°
2026-05-09 13:39 55.52404 8.53558 150 ft 78 kts 84°
2026-05-09 13:39 55.52484 8.54368 97 ft 55 kts 90°
2026-05-09 13:39 55.52553 8.54961 87 ft 43 kts 86°
2026-05-09 13:40 55.52615 8.55455 89 ft 37 kts 84°
2026-05-09 13:40 55.52638 8.55771 89 ft 22 kts 78°
2026-05-09 13:40 55.52640 8.55956 89 ft 9 kts 188°
2026-05-09 13:40 55.52580 8.55884 89 ft 11 kts 215°
2026-05-09 13:41 55.52515 8.55804 89 ft 11 kts 216°
2026-05-09 13:41 55.52448 8.55722 90 ft 12 kts 217°
2026-05-09 13:41 55.52400 8.55603 90 ft 13 kts 262°
2026-05-09 13:41 55.52382 8.55440 90 ft 13 kts 261°
2026-05-09 13:42 55.52337 8.55365 90 ft 9 kts 190°
2026-05-09 13:42 55.52268 8.55351 90 ft 10 kts 158°
2026-05-09 13:42 55.52247 8.55391 90 ft 4 kts 96°
2026-05-09 13:42 55.52253 8.55407 90 ft 2 kts 23°
2026-05-09 13:43 55.52283 8.55402 90 ft 3 kts 315°
2026-05-09 13:43 55.52286 8.55390 90 ft 0 kts 282°